Simultaneous Nadir Overpasses (SNOs) Predictions

Prediction of SNOs between GOES-16 and NOAA-19 Satellite Orbit:

Table of predicted SNOs for the next 14.0 days since TLE Epoch: 3/8/2019
Index Date Time (GOES-16) GOES-16 Lat,Lon NOAA-19 Lat,Lon Distance(km) Time Diff (sec)
1 03/10/2019 09:52:31 -0.01, -75.20 0.48, -77.37 246.77 80
2 03/11/2019 09:38:14 -0.01, -75.21 -0.16, -74.53 76.94 80
3 03/12/2019 09:26:38 -0.02, -75.21 -0.80, -71.70 400.70 80
4 03/13/2019 22:02:05 0.01, -75.21 -1.02, -79.54 494.97 80
5 03/14/2019 21:50:29 0.01, -75.22 -0.36, -76.71 170.99 80
6 03/15/2019 21:36:12 0.00, -75.22 0.29, -73.88 153.22 80
7 03/16/2019 21:24:37 -0.00, -75.23 1.00, -71.05 477.47 80
8 03/18/2019 10:00:05 0.01, -75.25 0.86, -78.90 417.24 80
9 03/19/2019 09:48:28 0.01, -75.26 0.21, -76.07 92.79 80
10 03/20/2019 09:34:12 0.01, -75.27 -0.44, -73.23 231.89 80




NCC Satellite Simultaneous Nadir Overpasses (SNOs) Prediction Service
